Location: Unspecified
(34.8500°N, 0.0000°E)
Time: 04:11:06
(UTC+00:00)

SO-50 - Visible Passes

Search period start: 05 April 2026 00:00
Search period end: 15 April 2026 00:00
Orbit: 568 x 673 km, 64.6° (Epoch: 29 March)

Date Brightness Start Highest point End Pass type
(mag) Time Alt. Az. Time Alt. Az. Time Alt. Az.
5 Apr ? 19:39:54 10° NNE 19:42:01 13° NE 19:42:50 12° NE visible
5 Apr ? 21:17:48 10° NNW 21:20:00 27° NW 21:20:00 27° NW visible
6 Apr ? 19:56:11 10° N 20:00:04 24° NE 20:00:20 24° ENE visible
6 Apr ? 21:35:47 10° NW 21:37:30 20° WNW 21:37:30 20° WNW visible
7 Apr ? 20:13:17 10° NNW 20:17:53 48° NE 20:17:53 48° NE visible
7 Apr ? 21:54:37 10° WNW 21:55:04 11° WNW 21:55:04 11° WNW visible
8 Apr ? 18:52:48 10° NNE 18:55:02 13° NE 18:57:15 10° ENE visible
8 Apr ? 20:30:48 10° NNW 20:35:31 77° WSW 20:35:31 77° WSW visible
9 Apr ? 19:09:08 10° N 19:13:03 25° NE 19:16:03 14° E visible
9 Apr ? 20:48:47 10° NW 20:53:02 33° WSW 20:53:14 33° WSW visible
10 Apr ? 19:26:14 10° NNW 19:30:52 50° ENE 19:33:50 20° SE visible
10 Apr ? 21:07:41 10° WNW 21:10:21 15° WSW 21:11:01 15° WSW visible
11 Apr ? 19:43:45 10° NNW 19:48:30 74° WSW 19:51:42 20° SSE visible
12 Apr ? 20:01:45 10° NW 20:05:58 32° WSW 20:09:41 12° S visible
13 Apr ? 20:20:42 10° WNW 20:23:16 15° WSW 20:25:46 10° SW visible
14 Apr ? 18:56:41 10° NNW 19:01:25 72° WSW 19:06:01 10° SSE visible
